Weather in Makov

Ukraine / Khmelnitsky District     48°47′16″N   26°41′40″E
temp.,
°C
wind,
m/s
gust,
m/s
humid.,
%
clouds,
%
prec.,
mm/h
press.,
hPa
HPBL,
m
17 august, wed
wed1700:00+18w1289100 0.1 100818
03:00+17w2391100 0.2 100873
06:00+16w2296100 0.0 100839
09:00+20wnw228270 0.0 1009467
12:00+22nw337399 0.4 1009944
15:00+23nnw566591 1.1 10091099
18:00+24nnw676193 0.1 10091280
21:00+19nnw498865 0.1 1010193
18 august, thu
thu1800:00+18nnw37937 0.0 1011137
03:00+17nw37940 0.0 1011150
06:00+16nw37964 0.0 1011150
09:00+21n35725 0.0 1011476
12:00+25nne346296 0.8 10111330
15:00+28n345133 2.1 10111635
18:00+28nne344733 0.0 10111548
21:00+23nnw33622 0.0 101238
19 august, fri
fri1900:00+20nne33660 0.0 101234
03:00+19nne33680 0.0 101232
06:00+18nne33720 0.0 101238
09:00+24ne35520 0.0 1013351
12:00+29ne44350 0.0 10121377
15:00+31nne44320 0.0 10121877
18:00+30nne43350 0.0 10112003
21:00+23ne36560 0.0 101275
20 august, sat
sat2000:00+21e23650 0.0 101331
03:00+20ene22720 0.0 101327
06:00+18ese11795 0.0 101211
09:00+25ese34561 0.0 1012362
12:00+30ese44405 0.0 10121575
15:00+32se33325 0.0 10112198
18:00+32se23305 0.0 10092435
21:00+26e2243100 0.0 101117
21 august, sun
sun2100:00+23nw126045 0.0 101126
03:00+21ene356633 0.0 101177
06:00+19ssw016838 0.0 101111
09:00+24ne015323 0.0 1011310
12:00+29s344095 0.0 10101106
15:00+29sw334396 0.0 1010743
18:00+30w114022 0.0 10101008
21:00+21nw228132 0.4 101133